Home   Weather   Tallinn   Past weeks

Flag for Estonia Past Weather in Tallinn, Estonia — Yesterday and Last 2 Weeks

Now
36 °F

Rain. Low clouds.


Feels Like: 26 °F
Forecast: 37 / 41 °F
Wind: 15 mph from Southwest

Location: Tallinn

Current Time: Dec 7, 2016 at 8:19:20 pm

Latest Report: Dec 7, 2016 at 7:50 pm


Visibility: 4 mi

Pressure: 29.83 "Hg

Humidity: 100%

Dew Point: 36 °F

Location of TallinnLocation

Past Weather in Tallinn — Graph

°F

Tallinn Temperature Yesterday

Maximum temperature yesterday: 30 °F (at 12:20 am)
Minimum temperature yesterday: 16 °F (at 10:50 pm)
Average temperature yesterday: 24 °F

High & Low Weather Summary for the Past Weeks

 TemperatureHumidityPressure
High43 °F (Nov 24, 6:20 am)100% (Nov 22, 11:50 pm)30.36 "Hg (Nov 22, 11:50 pm)
Low16 °F (Dec 6, 10:50 pm)60% (Dec 1, 7:50 am)29.12 "Hg (Nov 26, 5:50 pm)
Average32 °F85%29.77 "Hg
* Reported Nov 22 7:20 pm — Dec 7 7:20 pm, Tallinn, Weather by CustomWeather, © 2016

Note: Actual official high and low records may vary slightly from our data, if they occured in-between our weather recording intervals... More about our weather records

Advertising

Tallinn Weather History for the Previous 24 Hours

Scroll right to see more
 ConditionsComfort  
Time TempWeatherWind HumidityBarometerVisibility
7:20 pm
Wed, Dec 7
36 °FLight rain. Low clouds.17 mph93%29.86 "HgN/A
6:50 pm36 °FLight rain. Mostly cloudy.15 mph93%29.86 "HgN/A
6:20 pm36 °FLight rain. Mostly cloudy.15 mph93%29.89 "HgN/A
5:50 pm36 °FRain. Low clouds.13 mph93%29.92 "Hg5 mi
5:20 pm36 °FLight rain. Mostly cloudy.17 mph87%29.92 "HgN/A
4:50 pm37 °FLight rain. Overcast.17 mph81%29.92 "HgN/A
4:20 pm37 °FOvercast.21 mph81%29.95 "HgN/A
3:50 pm39 °FMostly cloudy.23 mph75%29.95 "HgN/A
3:20 pm39 °FOvercast.22 mph75%29.95 "HgN/A
2:50 pm37 °FOvercast.21 mph81%29.95 "HgN/A
2:20 pm37 °FOvercast.16 mph81%29.98 "HgN/A
1:50 pm37 °FOvercast.18 mph81%29.98 "HgN/A
1:20 pm37 °FOvercast.21 mph81%30.01 "HgN/A
12:50 pm36 °FOvercast.18 mph87%30.01 "HgN/A
12:20 pm36 °FOvercast.20 mph81%30.04 "HgN/A
11:50 am36 °FOvercast.17 mph81%30.04 "HgN/A
11:20 am34 °FPartly sunny.17 mph87%30.07 "HgN/A
10:50 am34 °FPassing clouds.18 mph87%30.07 "HgN/A
10:20 am32 °FPassing clouds.15 mph87%30.09 "HgN/A
9:50 am32 °FScattered clouds.13 mph87%30.09 "HgN/A
9:20 am30 °FPassing clouds.16 mph93%30.12 "HgN/A
8:50 am30 °FPassing clouds.16 mph93%30.12 "HgN/A
8:20 am30 °FPassing clouds.16 mph93%30.15 "HgN/A
7:50 am28 °FPassing clouds.14 mph93%30.18 "HgN/A
7:20 am28 °FPassing clouds.14 mph86%30.18 "HgN/A
6:50 am27 °FLight snow. Mostly cloudy.13 mph86%30.18 "Hg5 mi
6:20 am27 °FOvercast.15 mph86%30.21 "HgN/A
5:50 am25 °FPassing clouds.13 mph86%30.24 "HgN/A
5:20 am25 °FPassing clouds.12 mph86%30.24 "HgN/A
4:50 am23 °FPassing clouds.10 mph93%30.27 "HgN/A
4:20 am23 °FPassing clouds.12 mph86%30.27 "HgN/A
3:50 am21 °FPassing clouds.10 mph93%30.30 "HgN/A
3:20 am21 °FClear.8 mph93%30.30 "Hg10 mi
2:50 am21 °FClear.10 mph86%30.33 "Hg10 mi
2:20 am18 °FClear.9 mph93%30.33 "Hg10 mi
1:50 am18 °FClear.8 mph93%30.33 "Hg10 mi
1:20 am18 °FClear.7 mph93%30.33 "Hg10 mi
12:50 am18 °FClear.3 mph93%30.36 "Hg10 mi
12:20 am18 °FClear.6 mph93%30.36 "Hg10 mi
11:50 pm
Tue, Dec 6
18 °FClear.5 mph93%30.36 "Hg10 mi
11:20 pm18 °FClear.5 mph93%30.36 "Hg10 mi
10:50 pm16 °FClear.3 mph93%30.36 "Hg10 mi
10:20 pm18 °FClear.2 mph93%30.36 "Hg10 mi
9:50 pm18 °FClear.1 mph93%30.36 "Hg10 mi
9:20 pm19 °FClear.2 mph93%30.36 "Hg10 mi
8:50 pm18 °FClear.2 mph93%30.36 "Hg10 mi
Weather by CustomWeather, © 2016

See weather overviewHow to use our weather pages